Location: *
(33.6842°N, 117.7925°W)
Time: 04:56:39
(UTC+00:00)

Centaur D-1AR AC-39 - Pass Details

Date: 21 October 2019
Orbit: 580 x 36202 km, 22.0° (Epoch: 17 November)

Event Time Altitude Azimuth Distance (km) Brightness Sun altitude
Exits shadow 13:15:47 - 233° (SW) 2,340 4.1 -10.1°
Reaches altitude 10° 13:16:41 10° 224° (SW) 2,009 3.8 -9.9°
Maximum altitude 13:20:01 26° 163° (SSE) 1,696 4.1 -9.2°
Drops below altitude 10° 13:27:31 10° 108° (ESE) 4,668 7.6 -7.6°
Sets 13:36:09 0° 100° (E) 8,371 10.3 -5.9°
